Location: Chervonnoye
(48.6000°N, 34.4000°E)
Time: 08:37:48
(UTC+00:00)

KAITUO 1B - Pass Details

Date: 05 December 2021
Orbit: 486 x 507 km, 97.4° (Epoch: 18 January)

Event Time Altitude Azimuth Distance (km) Brightness Sun altitude
Rises 15:06:39 0° 161° (SSE) 2,598 ? -12.5°
Reaches altitude 10° 15:08:43 10° 159° (SSE) 1,721 ? -12.8°
Maximum altitude 15:12:25 74° 74° (ENE) 536 ? -13.4°
Drops below altitude 10° 15:16:10 10° 350° (N) 1,744 ? -14.0°
Sets 15:18:16 0° 349° (N) 2,636 ? -14.3°
